Вернуться в каталог

STARLINK-36535

АктивенСвязьVLEO
NORAD 67986·PAYLOAD·🇺🇸 United States

Запущен Feb 27, 2026 с Vandenberg Space Force Base

Loading…

Ближайшие Пролёты (ближайшие 24 часа)

TLE

СвежийSource: CelesTrak SupGP

Эпоха: Sep 15, 2026, 04:12 UTC

1 67986C 26039A   26258.17548611 -.00024094  00000+0 -87253-3 0  2588
2 67986  43.0014  59.2022 0001522 268.3631 260.8815 15.27595892    13

Отслеживайте STARLINK-36535 в реальном времени с AllMySat

Download on the App Store